Back to catalog

DELTA 1 DEB

AliveSSO
NORAD 20029·DEBRIS·🇺🇸 United States

Launched Mar 5, 1978 from Vandenberg Space Force Base

Loading…

Next Passes (next 24 hours)

TLE

FreshSource: Space-Track

Epoch: Sep 14, 2026, 22:12 UTC

1 20029U 78026HS  26257.92567446  .00000762  00000-0  22937-3 0  9992
2 20029  98.5814 282.5530 0060466  71.8565  47.4378 14.44442785954283

Track DELTA 1 DEB in real time with AllMySat

Download on the App Store